This is the latest recevied weather packets stored in our database for station/object KD4WXI. If no packets are shown the sender has not sent any weather packets the latest 10 day(s).
| Time | Temp. | Humidity | Pressure | Rain* | Wind** | Luminosity | Snow |
|---|---|---|---|---|---|---|---|
| 1777905003 | 20° C | 47% | 1017.9 hPa | 0 mm | - | 535 W/m² | - |
| 1777904700 | 20° C | 52% | 1017.7 hPa | 0 mm | - | 522 W/m² | - |
| 1777904397 | 20° C | 57% | 1018 hPa | 0 mm | - | 508 W/m² | - |
| 1777904094 | 19.44° C | 55% | 1017.8 hPa | 0 mm | - | 497 W/m² | - |
| 1777903791 | 20° C | 52% | 1017.8 hPa | 0 mm | - | 481 W/m² | - |
| 1777903487 | 18.89° C | 54% | 1018 hPa | 0 mm | - | 467 W/m² | - |
| 1777903184 | 18.33° C | 59% | 1018 hPa | 0 mm | - | 452 W/m² | - |
| 1777902880 | 18.33° C | 64% | 1017.9 hPa | 0 mm | - | 439 W/m² | - |
| 1777902577 | 18.33° C | 59% | 1018.1 hPa | 0 mm | - | 422 W/m² | - |
| 1777902274 | 17.22° C | 57% | 1018 hPa | 0 mm | - | 408 W/m² | - |
| 1777901972 | 17.22° C | 63% | 1017.9 hPa | 0 mm | - | 393 W/m² | - |
| 1777901669 | 17.22° C | 61% | 1018 hPa | 0 mm | - | 379 W/m² | - |
| 1777901366 | 15.56° C | 65% | 1018.1 hPa | 0 mm | - | 364 W/m² | - |
| 1777901064 | 15.56° C | 67% | 1018 hPa | 0 mm | - | 349 W/m² | - |
| 1777900761 | 15.56° C | 69% | 1018.1 hPa | 0 mm | - | 333 W/m² | - |
| 1777900458 | 15° C | 68% | 1017.8 hPa | 0 mm | - | 318 W/m² | - |
| 1777900156 | 13.89° C | 72% | 1017.9 hPa | 0 mm | - | 303 W/m² | - |
| 1777899852 | 13.89° C | 72% | 1017.8 hPa | 0 mm | - | 288 W/m² | - |
| 1777899549 | 12.78° C | 76% | 1017.6 hPa | 0 mm | - | 272 W/m² | - |
| 1777899246 | 12.22° C | 80% | 1017.9 hPa | 0 mm | - | 256 W/m² | - |
| 1777898944 | 11.67° C | 81% | 1017.9 hPa | 0 mm | - | 243 W/m² | - |
| 1777898640 | 11.67° C | 81% | 1018 hPa | 0 mm | - | 81 W/m² | - |
| 1777898338 | 10.56° C | 84% | 1017.9 hPa | 0 mm | - | 101 W/m² | - |
| 1777898035 | 10.56° C | 85% | 1017.8 hPa | 0 mm | - | 44 W/m² | - |
| 1777897731 | 10° C | 85% | 1018.2 hPa | 0 mm | - | 89 W/m² | - |
* Rain latest hour (hover to see other rain measurements)
** Current wind speed in m/s (hover to see current wind gust speed)